Tracking 19709 objects as of 17-Jun-2019
HD Live streaming from Space Station
objects crossing your sky now

SL-8 DEB

Track SL-8 DEB now!
10-day predictions


NORAD ID: 21157
Int'l Code: 1991-009U
Perigee: 1,442.7 km
Apogee: 1,721.0 km
Inclination: 74.0 °
Period: 117.6 minutes
Semi major axis: 7952 km
RCS: 0.2621 m2 (medium)
Launch date: February 12, 1991
Source: Commonwealth of Independent States (former USSR) (CIS)
Launch site: PLESETSK MISSILE AND SPACE COMPLEX (PKMTR)

Note: This is SATELLITE DEBRIS
aabbcc
Your satellite tracking list
Your tracking list is empty




NASA's NSSDC Master Catalog

Two Line Element Set (TLE):
1 21157U 91009U   19167.92547925 -.00000005 +00000-0 +93165-4 0  9996
2 21157 073.9513 340.4055 0174952 285.4770 189.2393 12.24101693263823
Source of the keplerian elements: AFSPC